Location: Cowley
(49.5667°N, 114.0667°W)
Time: 05:36:08
(UTC+00:00)

ISS - Visible Passes

Search period start: 06 December 2021 00:00
Search period end: 16 December 2021 00:00
Orbit: 417 x 422 km, 51.6° (Epoch: 06 December)

Date Brightness Start Highest point End Pass type
(mag) Time Alt. Az. Time Alt. Az. Time Alt. Az.
06 Dec -2.1 01:32:48 10° W 01:35:53 32° SSW 01:38:07 16° SSE visible
07 Dec -2.7 00:45:19 10° WNW 00:48:35 46° SSW 00:51:52 10° SE visible
08 Dec -0.7 01:35:32 10° W 01:37:35 15° SW 01:39:37 10° S visible
09 Dec -1.1 00:47:39 10° W 00:50:22 22° SW 00:53:04 10° SSE visible
